Погода в Колежме

Россия / Республика Карелия     64°14′14″N   35°52′19″E
темп.,
°C
ветер,
м/с
пор.,
м/с
влажн.,
%
обл.,
%
осадки,
мм/ч
давл.,
гПа
погр.,
м
5 августа, чт
чт500:00+9з61291100 0.7 10101024
03:00+10зюз51194100 2.1 1012565
06:00+10зюз41192100 0.1 1013378
09:00+13з367459 0.1 1015543
12:00+16сз355198 0.0 10161355
15:00+16ссв344988 0.0 10171010
18:00+16всв225470 0.0 1018336
21:00+11юв237783 0.0 101945
6 августа, пт
пт600:00+9ю227786 0.0 101935
03:00+9ююв227547 0.0 102028
06:00+10ююв116957 0.0 102136
09:00+15вюв235368 0.0 1021436
12:00+17в344710 0.0 1021773
15:00+18в35400 0.0 10211153
18:00+16св35490 0.0 1021433
21:00+11св36795 0.0 1021108
7 августа, сб
сб700:00+10вюв38865 0.0 1022138
03:00+9вюв37900 0.0 1022136
06:00+11вюв38810 0.0 1023211
09:00+15в49570 0.0 1023536
12:00+18в58450 0.0 10221115
15:00+20в58400 0.0 10211376
18:00+18всв49510 0.0 1020520
21:00+14в4127353 0.0 1020290
8 августа, вс
вс800:00+13вюв51471100 0.0 1021425
03:00+13вюв51466100 0.0 1020459
06:00+12в51469100 0.0 1020482
09:00+15в61461100 0.0 1020566
12:00+17вюв71250100 0.0 1019852
15:00+17в61050100 0.0 10191094
18:00+15юв51361100 0.0 1019820
21:00+13вюв51382100 0.4 1019705
9 августа, пн
пн900:00+12вюв41193100 0.8 1019523
03:00+12вюв51097100 0.9 1018511
06:00+12вюв4996100 0.1 1018469
09:00+12вюв4996100 0.3 1018397
12:00+15вюв4784100 0.1 1018510
15:00+17вюв467475 0.1 1018658
18:00+17вюв477448 0.0 1018593
21:00+15вюв388499 0.0 1018226